Change the Weather History Date:

Wednesday, June 18, 2014

  Actual Average (KMRF) Record (KMRF)
Temperature  
Mean Temperature 80 °F -  
Max Temperature 95 °F 85 °F 102 °F (2011)
Min Temperature 67 °F 57 °F 51 °F (1997)
Cooling Degree Days 15    
Growing Degree Days 30 (Base 50)    
Moisture  
Dew Point 52 °F    
Average Humidity 42    
Maximum Humidity 61    
Minimum Humidity 20    
Precipitation  
Precipitation 0.02 in - - ()
Sea Level Pressure  
Sea Level Pressure 30.08 in    
Wind  
Wind Speed 9 mph (SSW)    
Max Wind Speed 28 mph    
Max Gust Speed 34 mph    
Visibility 10 miles    
Events Thunderstorm    
Averages and records for this station are not official NWS values.
T = Trace of Precipitation, MM = Missing Value Source: NWS Daily Summary

Daily Weather History Graph

Daily Weather History Graph

Search for Another Location

Airport or City:

Trip Planner

Search our weather history database for the weather conditions in past years. The results will help you decide how hot, cold, wet, or windy it might be!

Date:

Astronomy

Jun. 18, 2014 Rise Set
Actual Time 6:52 AM CDT 8:59 PM CDT
Civil Twilight 6:25 AM CDT 9:26 PM CDT
Nautical Twilight 5:51 AM CDT 10:00 PM CDT
Astronomical Twilight 5:15 AM CDT 10:36 PM CDT
Moon 12:50 AM CDT (6/18) 12:54 PM CDT (6/18)
Length of Visible Light 15h 01m
Length of Day
14h 06m
Waning Gibbous, 62% of the Moon is Illuminated
Jun 18
Waning Gibbous
Jun 19
Last Quarter
Jun 27
New
Jul 5
First Quarter
Jul 12
Full

Hourly Weather History & Observations

Time (CDT) Temp. Heat Index Dew Point Humidity Pressure Visibility Wind Dir Wind Speed Gust Speed Precip Events Conditions
12:15 AM 72.0 °F - 52.0 °F 49% 30.12 in 10.0 mi SSW 10.4 mph - N/A   Scattered Clouds
12:35 AM 72.9 °F - 52.2 °F 48% 30.12 in 10.0 mi SW 8.1 mph - N/A   Scattered Clouds
1:15 AM 70.9 °F - 53.2 °F 54% 30.12 in 10.0 mi South 4.6 mph - N/A   Clear
1:35 AM 72.5 °F - 52.2 °F 49% 30.12 in 10.0 mi SSW 5.8 mph - N/A   Clear
1:55 AM 70.5 °F - 53.2 °F 54% 30.11 in 10.0 mi South 5.8 mph - N/A   Clear
2:15 AM 69.3 °F - 53.1 °F 56% 30.11 in 10.0 mi SSW 8.1 mph - N/A   Clear
2:35 AM 70.2 °F - 52.9 °F 54% 30.09 in 10.0 mi SW 8.1 mph - N/A   Clear
2:55 AM 70.2 °F - 52.9 °F 54% 30.09 in 10.0 mi South 8.1 mph - N/A   Clear
3:15 AM 69.4 °F - 53.2 °F 56% 30.09 in 10.0 mi South 8.1 mph - N/A   Clear
3:35 AM 68.5 °F - 53.8 °F 59% 30.08 in 10.0 mi South 5.8 mph - N/A   Clear
3:55 AM 68.4 °F - 54.0 °F 60% 30.08 in 10.0 mi SW 8.1 mph - N/A   Clear
4:15 AM 68.4 °F - 52.9 °F 58% 30.08 in 10.0 mi WSW 6.9 mph - N/A   Clear
4:35 AM 69.8 °F - 52.3 °F 54% 30.08 in 10.0 mi SSW 11.5 mph - N/A   Clear
4:55 AM 70.7 °F - 51.8 °F 51% 30.08 in 10.0 mi SW 10.4 mph - N/A   Clear
5:15 AM 68.5 °F - 52.7 °F 57% 30.08 in 10.0 mi WSW 5.8 mph - N/A   Scattered Clouds
5:35 AM 69.3 °F - 52.2 °F 54% 30.09 in 10.0 mi WSW 5.8 mph - N/A   Scattered Clouds
5:55 AM 68.7 °F - 52.3 °F 56% 30.09 in 10.0 mi SSW 6.9 mph - N/A   Clear
6:15 AM 68.2 °F - 53.6 °F 60% 30.09 in 10.0 mi SW 10.4 mph - N/A   Clear
6:35 AM 67.8 °F - 53.1 °F 59% 30.08 in 10.0 mi SW 10.4 mph - N/A   Clear
6:55 AM 68.2 °F - 53.4 °F 59% 30.09 in 10.0 mi SW 9.2 mph - N/A   Clear
7:15 AM 69.8 °F - 52.9 °F 55% 30.09 in 10.0 mi SW 5.8 mph - N/A   Clear
7:35 AM 70.9 °F - 53.1 °F 53% 30.10 in 10.0 mi SSW 5.8 mph - N/A   Clear
7:55 AM 72.1 °F - 54.3 °F 53% 30.11 in 10.0 mi SW 9.2 mph - N/A   Clear
8:15 AM 73.2 °F - 54.9 °F 52% 30.11 in 10.0 mi SW 4.6 mph - N/A   Clear
8:35 AM 74.3 °F - 55.4 °F 52% 30.12 in 10.0 mi WSW 5.8 mph - N/A   Clear
9:15 AM 77.4 °F - 54.9 °F 46% 30.12 in 10.0 mi WSW 15.0 mph - N/A   Clear
9:35 AM 79.7 °F - 53.1 °F 40% 30.12 in 10.0 mi WSW 13.8 mph - N/A   Clear
9:55 AM 79.7 °F - 52.9 °F 39% 30.13 in 10.0 mi SW 10.4 mph - N/A   Clear
10:15 AM 80.8 °F - 51.6 °F 36% 30.13 in 10.0 mi SSW 11.5 mph - N/A   Clear
10:35 AM 82.8 °F - 51.6 °F 34% 30.13 in 10.0 mi SW 10.4 mph 16.1 mph N/A   Clear
10:55 AM 84.0 °F - 51.4 °F 32% 30.12 in 10.0 mi SW 12.7 mph 16.1 mph N/A   Clear
11:15 AM 84.0 °F - 50.5 °F 31% 30.12 in 10.0 mi WSW 10.4 mph 16.1 mph N/A   Clear
11:35 AM 85.8 °F - 49.5 °F 28% 30.12 in 10.0 mi SW 10.4 mph - N/A   Clear
11:55 AM 85.8 °F - 48.4 °F 27% 30.12 in 10.0 mi WSW 6.9 mph - N/A   Clear
12:15 PM 86.9 °F - 47.8 °F 26% 30.11 in 10.0 mi WNW 3.5 mph - N/A   Clear
12:35 PM 88.3 °F - 47.3 °F 24% 30.11 in 10.0 mi SSW 10.4 mph - N/A   Clear
1:15 PM 90.1 °F - 45.5 °F 21% 30.11 in 10.0 mi SW 5.8 mph - N/A   Clear
1:35 PM 89.4 °F - 45.3 °F 22% 30.09 in 10.0 mi SSE 4.6 mph - N/A   Clear
1:55 PM 91.9 °F - 45.7 °F 20% 30.09 in 10.0 mi SW 10.4 mph - N/A   Scattered Clouds
2:35 PM 90.9 °F - 45.7 °F 21% 30.07 in 10.0 mi SW 6.9 mph - N/A   Clear
2:55 PM 90.3 °F - 45.9 °F 21% 30.06 in 10.0 mi SSE 6.9 mph - N/A   Scattered Clouds
3:35 PM 92.5 °F - 46.2 °F 20% 30.04 in 10.0 mi SSW 4.6 mph - N/A   Scattered Clouds
3:55 PM 90.7 °F - 45.9 °F 21% 30.04 in 10.0 mi SW 5.8 mph - N/A   Clear
4:15 PM 91.2 °F - 45.9 °F 21% 30.03 in 10.0 mi SE 6.9 mph - N/A   Scattered Clouds
4:35 PM 92.1 °F - 45.3 °F 20% 30.02 in 10.0 mi SSW 5.8 mph - N/A   Mostly Cloudy
4:55 PM 93.6 °F - 46.9 °F 20% 30.01 in 10.0 mi South 16.1 mph 24.2 mph N/A   Mostly Cloudy
5:15 PM 93.6 °F - 46.4 °F 20% 30.01 in 10.0 mi West 4.6 mph - N/A Thunderstorm Scattered Clouds
5:35 PM 84.7 °F 83.6 °F 55.4 °F 37% 30.02 in 10.0 mi NE 21.9 mph 28.8 mph N/A   Mostly Cloudy
5:55 PM 86.7 °F - 51.3 °F 29% 30.01 in 10.0 mi ENE 11.5 mph - N/A   Scattered Clouds
6:15 PM 86.5 °F 84.6 °F 53.8 °F 32% 30.02 in 10.0 mi ESE 20.7 mph 28.8 mph N/A   Scattered Clouds
6:35 PM 83.5 °F 83.7 °F 60.4 °F 46% 30.03 in 10.0 mi ESE 27.6 mph 34.5 mph N/A   Scattered Clouds
6:55 PM 81.3 °F 81.6 °F 59.0 °F 46% 30.02 in 10.0 mi ESE 24.2 mph 31.1 mph N/A   Clear
7:15 PM 79.3 °F - 60.3 °F 52% 30.03 in 10.0 mi SE 18.4 mph 25.3 mph N/A   Scattered Clouds
7:35 PM 80.6 °F 80.8 °F 57.7 °F 45% 30.02 in 10.0 mi SE 18.4 mph 28.8 mph N/A   Scattered Clouds
7:55 PM 80.6 °F 80.8 °F 57.6 °F 45% 30.02 in 10.0 mi SE 16.1 mph 25.3 mph N/A   Scattered Clouds
8:15 PM 79.2 °F - 55.0 °F 43% 30.02 in 10.0 mi SE 16.1 mph 21.9 mph N/A   Clear
8:35 PM 78.6 °F - 54.7 °F 43% 30.03 in 10.0 mi SSE 8.1 mph 19.6 mph N/A   Clear
8:55 PM 77.9 °F - 53.6 °F 43% 30.02 in 10.0 mi SE 4.6 mph - N/A   Clear
9:15 PM 77.4 °F - 52.7 °F 42% 30.03 in 10.0 mi SE 5.8 mph - N/A   Clear
9:35 PM 77.4 °F - 52.7 °F 42% 30.03 in 10.0 mi South 3.5 mph - N/A   Clear
9:55 PM 77.0 °F - 53.4 °F 44% 30.03 in 10.0 mi SSW 8.1 mph - N/A   Clear
10:15 PM 78.8 °F - 53.6 °F 42% 30.07 in 10.0 mi West 13.8 mph - N/A   Mostly Cloudy
10:35 PM 73.2 °F - 58.8 °F 61% 30.05 in 7.0 mi SSW 17.3 mph 21.9 mph 0.01 in   Overcast
10:55 PM 75.6 °F - 55.8 °F 50% 30.07 in 10.0 mi WSW 26.5 mph 33.4 mph 0.01 in Thunderstorm Overcast
11:15 PM 72.1 °F - 52.5 °F 50% 30.10 in 10.0 mi WSW 13.8 mph 26.5 mph N/A Thunderstorm Mostly Cloudy
11:35 PM 73.4 °F - 52.3 °F 48% 30.11 in 10.0 mi NE 9.2 mph 23.0 mph 0.01 in Thunderstorm Overcast
11:55 PM 72.9 °F - 52.3 °F 48% 30.12 in 10.0 mi SSW 10.4 mph 16.1 mph 0.01 in   Mostly Cloudy